[[{"header":{"parameterUnit":"m.s-1","parameterCategory":1,"la1":30.2991,"la2":30.254,"lo1":-89.0895,"lo2":-89.0444,"dy":0.0017,"dx":0.0017,"nx":28,"ny":28,"refTime":"2025-04-29T03:00:00:Z","depth":0,"parameterNumber":2,"parameterNumberName":"U-component_of_WINDS"},"data":[0,0,0,0,0,0,0,0,0,0,0,0,0,0,0,0,0,0,0,0,0,0,0,0,0,0,0,0,0,0,0,0,0,0,0,0,0,0,0,0,0,0,0,0,0,0,0,0,0,0,0,0,0,0,0,0,0,0,-3.0983,-3.0983,0,-3.0969,-3.0969,-3.0968,-3.0921,-3.092,-3.0919,-3.0918,-3.0904,-3.0905,-3.0906,0,0,0,0,0,0,0,0,0,0,0,0,0,-3.0972,-3.0973,-3.0983,-3.0983,-3.0983,-3.0969,-3.0969,-3.0968,-3.0921,-3.092,-3.0919,-3.0917,-3.0904,-3.0905,-3.0906,0,0,0,0,0,0,0,0,0,0,0,0,0,-3.0969,-3.0973,-3.0983,-3.0958,-3.0955,-3.0969,-3.0969,-3.0968,-3.0921,-3.092,-3.0918,-3.0917,-3.0904,-3.0905,-3.0906,-3.0943,0,0,-3.0909,-3.0909,0,0,0,0,0,0,0,0,-3.097,-3.097,-3.0962,-3.0959,-3.0957,-3.0945,-3.096,-3.096,-3.0922,-3.0934,-3.0918,-3.0916,-3.0919,-3.0919,-3.092,-3.0943,-3.0942,-3.0909,-3.0909,-3.091,-3.091,0,0,0,0,0,0,0,-3.097,-3.097,-3.0977,-3.0962,-3.0959,-3.0948,-3.0945,-3.096,-3.0936,-3.0933,-3.093,-3.0929,-3.0918,-3.0919,-3.0919,-3.0942,-3.0909,-3.091,-3.091,-3.0911,-3.0995,-3.0997,0,0,0,0,0,0,-3.0973,-3.0971,-3.0978,-3.0977,-3.0959,-3.0949,-3.0947,-3.095,-3.0936,-3.0932,-3.093,-3.0926,-3.0918,-3.0918,-3.0918,-3.096,-3.091,-3.0911,-3.0911,-3.0994,-3.0996,-3.0998,0,0,0,0,0,0,-3.0973,-3.0974,-3.0979,-3.0973,-3.0973,-3.0951,-3.0956,-3.0951,-3.0952,-3.0933,-3.0929,-3.0935,-3.0917,-3.0917,-3.0937,-3.0959,-3.0911,-3.0912,-3.0992,-3.0994,-3.0997,-3.1046,0,0,0,0,0,0,-3.0973,-3.0975,-3.0988,-3.0974,-3.0973,-3.0997,-3.0957,-3.0952,-3.0954,-3.0949,-3.0937,-3.0934,-3.0916,-3.0936,-3.0938,-3.096,-3.0913,-3.099,-3.0993,-3.0996,-3.1042,-3.1049,-3.1056,0,0,0,0,0,-3.0973,-3.1003,-3.0989,-3.099,-3.0989,-3.0999,-3.0998,-3.0976,-3.0956,-3.0969,-3.0957,-3.0934,-3.0957,-3.0939,-3.0941,-3.0963,-3.0988,-3.0992,-3.0996,-3.1039,-3.1048,-3.1056,0,0,0,0,0,0,-3.1021,-3.1,-3.0985,-3.1011,-3.1007,-3.0991,-3.1007,-3.0987,-3.0989,-3.0985,-3.0958,-3.0956,-3.098,-3.0974,-3.0954,-3.0998,-3.0969,-3.0973,-3.1001,-3.101,-3.1017,-3.1016,-3.0913,0,0,0,0,0,-3.1034,-3.1043,-3.1025,-3.105,-3.1049,-3.1029,-3.1032,-3.1015,-3.101,-3.1008,-3.0998,-3.0994,-3.1001,-3.1005,-3.101,-3.1042,-3.1038,-3.1058,-3.1065,-3.1071,-3.1074,-3.109,-3.1098,-3.101,-3.101,-3.101,0,0,-3.1062,-3.1052,-3.1059,-3.1059,-3.1054,-3.1064,-3.1027,-3.1039,-3.1046,-3.101,-3.1028,-3.1021,-3.1015,-3.1041,-3.1052,-3.1037,-3.1099,-3.1076,-3.1081,-3.1081,-3.1095,-3.1103,-3.1111,-3.1013,-3.1012,-3.1012,0,0,-3.1118,-3.1112,-3.1131,-3.1127,-3.112,-3.1106,-3.1111,-3.1098,-3.1092,-3.111,-3.1083,-3.1092,-3.1103,-3.11,-3.11,-3.1157,-3.1135,-3.1159,-3.1195,-3.1211,-3.1218,-3.1224,-3.1242,-3.1249,-3.1163,-3.1163,-3.1163,0,-3.1153,-3.1166,-3.1144,-3.1157,-3.1158,-3.1126,-3.1146,-3.1143,-3.1139,-3.114,-3.1123,-3.1137,-3.1131,-3.1156,-3.117,-3.1171,-3.1176,-3.1159,-3.1218,-3.1224,-3.1229,-3.1247,-3.1254,-3.1166,-3.1166,-3.1166,-3.1165,0,-3.121,-3.122,-3.1237,-3.1232,-3.1235,-3.1252,-3.1232,-3.1238,-3.1223,-3.1211,-3.123,-3.1222,-3.1225,-3.123,-3.1215,-3.1252,-3.1243,-3.1223,-3.1192,-3.1241,-3.1257,-3.1263,-3.117,-3.1169,-3.1168,-3.1168,0,0,-3.1292,-3.1276,-3.1282,-3.128,-3.127,-3.1278,-3.1294,-3.1296,-3.1301,-3.13,-3.1312,-3.1324,-3.1305,-3.1305,-3.129,-3.1304,-3.1348,-3.1282,-3.1282,-3.1293,-3.1387,-3.1401,-3.1409,-3.1335,-3.1336,-3.1337,-3.1387,0,-3.1343,-3.1368,-3.1349,-3.1377,-3.1386,-3.1357,-3.1371,-3.1367,-3.1358,-3.1364,-3.1354,-3.1362,-3.1338,-3.1337,-3.135,-3.134,-3.1366,-3.1336,-3.1345,-3.1346,-3.1344,-3.1417,-3.1431,-3.1479,-3.1393,-3.1395,-3.1395,0,-3.1405,-3.1406,-3.1435,-3.1424,-3.1427,-3.1439,-3.144,-3.1447,-3.1443,-3.1435,-3.1436,-3.1417,-3.1432,-3.1405,-3.1425,-3.1405,-3.1408,-3.1404,-3.1405,-3.1403,-3.1371,-3.1415,-3.1494,-3.15,-3.1405,-3.1404,-3.1404,0,-3.146,-3.1469,-3.1487,-3.1486,-3.1474,-3.1484,-3.1479,-3.1473,-3.1476,-3.1477,-3.1479,-3.1483,-3.1484,-3.1487,-3.147,-3.1452,-3.1493,-3.1464,-3.1486,-3.1487,-3.1494,-3.1493,-3.1572,-3.15,-3.15,-3.15,-3.15,0,-3.1517,-3.1536,-3.1511,-3.1522,-3.1543,-3.1522,-3.1542,-3.1535,-3.1531,-3.154,-3.1517,-3.1526,-3.1504,-3.1512,-3.1499,-3.1518,-3.1519,-3.1513,-3.1509,-3.1514,-3.1514,-3.1513,-3.1509,-3.1502,-3.1501,-3.1501,-3.1501,0,-3.1581,-3.1565,-3.1583,-3.1571,-3.1568,-3.1584,-3.1573,-3.1583,-3.1573,-3.1585,-3.1587,-3.1571,-3.1579,-3.1563,-3.1569,-3.1561,-3.1586,-3.1578,-3.1587,-3.1584,-3.1606,-3.1604,-3.1685,-3.1694,-3.1619,-3.162,-3.162,0,-3.1617,-3.1631,-3.162,-3.1624,-3.1621,-3.1629,-3.1632,-3.1612,-3.1616,-3.1613,-3.1623,-3.1629,-3.1632,-3.1646,-3.1635,-3.164,-3.163,-3.1659,-3.1631,-3.1635,-3.1628,-3.1627,-3.1628,-3.1664,-3.1665,-3.1665,-3.1666,0,-3.1683,-3.1675,-3.1679,-3.1681,-3.1685,-3.1686,-3.1685,-3.169,-3.167,-3.1676,-3.1683,-3.1686,-3.1692,-3.1698,-3.17,-3.1696,-3.1677,-3.1675,-3.168,-3.1684,-3.1688,-3.1684,-3.16,-3.1673,-3.1672,-3.1672,-3.1671,-3.1671,-3.1733,-3.1743,-3.1737,-3.1743,-3.174,-3.174,-3.1749,-3.174,-3.1746,-3.1748,-3.1738,-3.1747,-3.1744,-3.1744,-3.1743,-3.175,-3.1738,-3.1745,-3.1747,-3.1749,-3.1751,-3.1689,-3.1751,-3.1751,-3.1751,-3.175,-3.175,0,-3.1796,-3.1791,-3.1796,-3.1796,-3.1801,-3.1784,-3.1782,-3.1787,-3.1796,-3.1794,-3.1798,-3.1807,-3.1813,-3.1803,-3.1807,-3.1815,-3.1807,-3.1817,-3.1815,-3.1814,-3.1763,-3.1758,-3.1823,-3.1823,-3.1823,-3.1823,-3.1823,-3.1823,-3.1829,-3.1845,-3.1837,-3.1852,-3.1847,-3.1856,-3.1857,-3.1857,-3.1855,-3.1865,-3.187,-3.1864,-3.1859,-3.1862,-3.1867,-3.1864,-3.1866,-3.1879,-3.1873,-3.1825,-3.1818,-3.1811,-3.1805,-3.188,-3.188,-3.1922,-3.1923,-3.1923]},{"header":{"parameterUnit":"m.s-1","parameterCategory":1,"la1":30.2991,"la2":30.254,"lo1":-89.0895,"lo2":-89.0444,"dy":0.0017,"dx":0.0017,"nx":28,"ny":28,"refTime":"2025-04-29T03:00:00:Z","depth":0,"parameterNumber":3,"parameterNumberName":"V-component_of_WINDS"},"data":[0,0,0,0,0,0,0,0,0,0,0,0,0,0,0,0,0,0,0,0,0,0,0,0,0,0,0,0,0,0,0,0,0,0,0,0,0,0,0,0,0,0,0,0,0,0,0,0,0,0,0,0,0,0,0,0,0,0,3.1681,3.1681,0,3.1721,3.1722,3.1722,3.1737,3.1737,3.1737,3.1736,3.1774,3.1775,3.1776,0,0,0,0,0,0,0,0,0,0,0,0,0,3.1614,3.1615,3.1681,3.1681,3.1682,3.1721,3.1722,3.1722,3.1737,3.1737,3.1737,3.1736,3.1774,3.1775,3.1776,0,0,0,0,0,0,0,0,0,0,0,0,0,3.1647,3.1616,3.1681,3.1694,3.1696,3.1721,3.1722,3.1722,3.1737,3.1737,3.1736,3.1736,3.1773,3.1775,3.1777,3.1791,0,0,3.1782,3.1782,0,0,0,0,0,0,0,0,3.1646,3.165,3.1692,3.1693,3.1695,3.1724,3.1712,3.1745,3.1737,3.1721,3.1736,3.1736,3.1757,3.176,3.1768,3.1792,3.1794,3.1782,3.1783,3.1784,3.1784,0,0,0,0,0,0,0,3.1643,3.1648,3.1697,3.1692,3.1694,3.1697,3.1702,3.1718,3.174,3.1722,3.1724,3.1728,3.1758,3.1766,3.1769,3.1794,3.1782,3.1783,3.1784,3.1785,3.1833,3.1833,0,0,0,0,0,0,3.1639,3.1646,3.1695,3.1698,3.1669,3.1698,3.1704,3.1715,3.174,3.1743,3.1729,3.1729,3.1764,3.1767,3.177,3.1789,3.1784,3.1785,3.1786,3.1833,3.1833,3.1833,0,0,0,0,0,0,3.1638,3.1643,3.1694,3.1672,3.1679,3.17,3.1712,3.1716,3.1724,3.1744,3.1748,3.1733,3.1764,3.1768,3.1786,3.179,3.1786,3.1787,3.1832,3.1833,3.1833,3.1826,0,0,0,0,0,0,3.1636,3.1643,3.1649,3.1673,3.168,3.1709,3.1713,3.1717,3.1727,3.1728,3.175,3.1753,3.1764,3.1783,3.1788,3.1793,3.1789,3.1832,3.1832,3.1833,3.1826,3.1826,3.1826,0,0,0,0,0,3.1633,3.1644,3.1649,3.1655,3.1689,3.171,3.1714,3.1727,3.1728,3.1734,3.1747,3.1752,3.1789,3.1785,3.179,3.1796,3.1832,3.1832,3.1833,3.1826,3.1826,3.1826,0,0,0,0,0,0,3.1619,3.1648,3.1653,3.1673,3.1689,3.1712,3.172,3.1727,3.1743,3.1743,3.1758,3.1762,3.1779,3.1789,3.1784,3.1811,3.1811,3.1812,3.1804,3.1804,3.1804,3.1801,3.179,0,0,0,0,0,3.1618,3.1634,3.1658,3.1673,3.1681,3.1699,3.1709,3.1718,3.1735,3.1741,3.1756,3.1771,3.1786,3.1796,3.1811,3.1827,3.1832,3.1834,3.1834,3.1834,3.1835,3.1845,3.1846,3.1835,3.1835,3.1835,0,0,3.1617,3.1634,3.1643,3.167,3.1684,3.1699,3.1705,3.172,3.1732,3.1743,3.1761,3.1772,3.179,3.1808,3.1816,3.1817,3.1839,3.1835,3.1835,3.1836,3.1846,3.1847,3.1848,3.1836,3.1836,3.1835,0,0,3.1622,3.1637,3.1651,3.1665,3.1686,3.1699,3.1702,3.1725,3.1733,3.1752,3.1761,3.1774,3.18,3.1813,3.1822,3.1833,3.1839,3.1838,3.1838,3.1848,3.1849,3.185,3.1854,3.1855,3.1839,3.1839,3.1839,0,3.1617,3.1641,3.1657,3.1673,3.1684,3.1697,3.1712,3.1724,3.1748,3.1756,3.1756,3.179,3.1802,3.1823,3.1826,3.1834,3.1838,3.1835,3.1848,3.1849,3.185,3.1854,3.1855,3.1838,3.1839,3.1839,3.1839,0,3.1634,3.1651,3.166,3.1685,3.1697,3.1712,3.173,3.174,3.1748,3.176,3.1779,3.1796,3.1815,3.182,3.1828,3.1842,3.1842,3.1845,3.1845,3.185,3.1854,3.1856,3.1838,3.1838,3.1838,3.1838,0,0,3.163,3.1665,3.1668,3.168,3.1705,3.1718,3.1733,3.1753,3.1762,3.1778,3.1791,3.1813,3.1817,3.1828,3.1837,3.1845,3.1853,3.1847,3.1848,3.1848,3.187,3.1868,3.1869,3.1857,3.1858,3.1858,3.1869,0,3.1639,3.1668,3.1683,3.1706,3.1722,3.1735,3.1748,3.1764,3.1776,3.179,3.1803,3.1818,3.1821,3.1828,3.1837,3.185,3.1858,3.185,3.1869,3.1869,3.1864,3.1872,3.1869,3.1878,3.187,3.1871,3.1871,0,3.1652,3.167,3.1695,3.1719,3.1726,3.1738,3.1758,3.1772,3.179,3.1798,3.1811,3.182,3.1836,3.1836,3.1858,3.1852,3.1861,3.1868,3.1869,3.1871,3.187,3.1874,3.1882,3.1883,3.1874,3.1873,3.1873,0,3.1647,3.1678,3.1697,3.1706,3.1735,3.1743,3.1755,3.1773,3.1784,3.1801,3.1809,3.1827,3.1836,3.185,3.1863,3.1862,3.1884,3.1885,3.1891,3.189,3.1894,3.1894,3.1904,3.19,3.19,3.19,3.19,0,3.1655,3.1669,3.1695,3.1707,3.1723,3.174,3.1756,3.1768,3.1785,3.1799,3.181,3.1823,3.184,3.1855,3.1865,3.1882,3.1886,3.1892,3.1895,3.1891,3.1891,3.1897,3.1897,3.1901,3.19,3.19,3.19,0,3.1652,3.167,3.1692,3.1717,3.1724,3.1735,3.1756,3.1768,3.1781,3.1798,3.1803,3.1822,3.184,3.1855,3.1878,3.1885,3.1902,3.1905,3.1896,3.1898,3.1903,3.1902,3.1917,3.192,3.1914,3.1914,3.1914,0,3.1656,3.1668,3.1695,3.1706,3.1718,3.1735,3.1747,3.1764,3.1776,3.1799,3.1807,3.1826,3.1842,3.1869,3.1884,3.1902,3.1906,3.191,3.1908,3.1904,3.1906,3.1905,3.1906,3.191,3.191,3.1909,3.1909,0,3.1661,3.1669,3.1687,3.1708,3.1722,3.1739,3.1756,3.1764,3.1784,3.1796,3.1816,3.1828,3.1852,3.187,3.189,3.1901,3.1908,3.191,3.1912,3.1909,3.1903,3.1906,3.1896,3.1909,3.1909,3.1909,3.1909,3.1909,3.1661,3.1673,3.1694,3.1713,3.1728,3.1744,3.1757,3.1772,3.1788,3.181,3.1819,3.1838,3.1856,3.1884,3.1895,3.191,3.1911,3.1914,3.1915,3.1915,3.1915,3.1901,3.1913,3.1913,3.1913,3.1913,3.1913,0,3.1667,3.1682,3.1699,3.1724,3.1739,3.1746,3.1766,3.1777,3.1795,3.1812,3.1828,3.185,3.1868,3.1885,3.1904,3.1912,3.1916,3.1917,3.1916,3.1918,3.1913,3.1909,3.1913,3.1913,3.1913,3.1913,3.1913,3.1913,3.1672,3.1691,3.1703,3.173,3.1744,3.1764,3.1775,3.1789,3.1803,3.1827,3.1843,3.1855,3.1872,3.1892,3.1909,3.1914,3.192,3.1919,3.1925,3.1919,3.1919,3.1919,3.1915,3.1921,3.1921,3.1929,3.193,3.193]}]]